Weather in Arlan

Russia / Republic of Bashkortostan     55°58′27″N   54°14′51″E
temp.,
°C
wind,
m/s
gust,
m/s
humid.,
%
clouds,
%
prec.,
mm/h
press.,
hPa
HPBL,
m
2 march, tue
tue223:00−19sw3410058 0.0 101853
02:00−20ssw4610089 0.0 1016100
05:00−19ssw599694 0.0 1014220
08:00−17s61194100 0.0 1010330
11:00−12ssw71295100 0.8 1006540
14:00−9ssw71294100 1.6 1003638
17:00−7ssw71394100 2.9 1000670
20:00−5ssw71495100 1.3 998574
3 march, wed
wed323:00−2ssw61297100 2.3 997377
02:00−2wsw6129593 0.8 996435
05:00−3wsw5109494 1.1 997422
08:00−5wsw489797 0.2 997242
11:00−4w359693 0.4 998266
14:00−2w459498 0.2 998472
17:00−2wsw579699 0.5 999477
20:00−4wsw4896100 0.8 999354
4 march, thu
thu423:00−5nw61194100 1.4 1001522
02:00−11wnw499267 0.1 1001156
05:00−14w479737 0.1 100291
08:00−15wsw479831 0.0 100390
11:00−10sw599561 0.1 1003323
14:00−7sw61092100 0.3 1001530
17:00−5sw61091100 0.3 1001645
20:00−5ssw71395100 0.8 998739
5 march, fri
fri523:00−5ssw81691100 1.2 996690
02:00−1sw81597100 1.3 993814
05:00−1wsw91597100 2.9 992878
08:00−1wsw81396100 1.1 993817
11:00−5w7118998 1.3 996604
14:00−4w699095 0.0 1000624
17:00−4wnw578898 0.1 1004842
20:00−7w5994100 0.2 1007314
6 march, sat
sat623:00−14w479586 0.3 1011103
02:00−17w339765 0.0 101328
05:00−19wsw239859 0.0 101520
08:00−19sw2299100 0.0 101521
11:00−11e469399 0.1 1006255
14:00−9ne61095100 2.4 1001362
17:00−8ne71194100 5.5 998513
20:00−9n61194100 1.6 999568